Fort Lauderdale, FL

4:29 AM EST on January 22, 2017 (GMT -0500)
Fort Lauderdale Executive

Weather History for KFXE - October, 2012

Change the Weather History Date:

Saturday, October 13, 2012

  Actual Average Record
Temperature  
Mean Temperature 78 °F -  
Max Temperature 84 °F 86 °F 93 °F (1986)
Min Temperature 72 °F 71 °F 61 °F (1992)
Cooling Degree Days 13    
Growing Degree Days 28 (Base 50)    
Moisture  
Dew Point 67 °F    
Average Humidity 66    
Maximum Humidity 87    
Minimum Humidity 51    
Precipitation  
Precipitation 0.03 in - - ()
Sea Level Pressure  
Sea Level Pressure 30.07 in    
Wind  
Wind Speed 10 mph (NE)    
Max Wind Speed 20 mph    
Max Gust Speed 30 mph    
Visibility 10 miles    
Events      
Averages and records for this station are not official NWS values.
T = Trace of Precipitation, MM = Missing Value Source: NWS Daily Summary

Daily Weather History Graph

Daily Weather History Graph

Search for Another Location

Airport or City:

Trip Planner

Search our weather history database for the weather conditions in past years. The results will help you decide how hot, cold, wet, or windy it might be!

Date:

Astronomy

Oct. 13, 2012 Rise Set
Actual Time 7:18 AM EDT 6:54 PM EDT
Civil Twilight 6:55 AM EDT 7:17 PM EDT
Nautical Twilight 6:28 AM EDT 7:44 PM EDT
Astronomical Twilight 6:02 AM EDT 8:10 PM EDT
Moon 5:16 AM EDT (10/13) 5:31 PM EDT (10/13)
Length of Visible Light 12h 21m
Length of Day
11h 35m
Waning Crescent, 5% of the Moon is Illuminated
Oct 13
Waning Crescent
Oct 15
New
Oct 21
First Quarter
Oct 29
Full
Nov 6
Last Quarter

Hourly Weather History & Observations

Time (EDT) Temp. Heat Index Dew Point Humidity Pressure Visibility Wind Dir Wind Speed Gust Speed Precip Events Conditions
12:53 AM 73.9 °F - 66.0 °F 76% 30.09 in 10.0 mi NNW 5.8 mph - N/A   Partly Cloudy
1:53 AM 73.9 °F - 66.0 °F 76% 30.08 in 10.0 mi NW 4.6 mph - N/A   Scattered Clouds
2:53 AM 73.9 °F - 66.0 °F 76% 30.06 in 10.0 mi NNW 4.6 mph - N/A   Partly Cloudy
3:53 AM 72.0 °F - 66.0 °F 81% 30.05 in 10.0 mi NW 4.6 mph - N/A   Partly Cloudy
4:53 AM 73.0 °F - 66.9 °F 81% 30.04 in 10.0 mi NNW 4.6 mph - N/A   Scattered Clouds
5:53 AM 75.0 °F - 66.9 °F 76% 30.05 in 10.0 mi NNW 5.8 mph - N/A   Overcast
6:53 AM 73.9 °F - 70.0 °F 87% 30.06 in 10.0 mi North 3.5 mph - 0.00 in   Overcast
7:53 AM 77.0 °F - 70.0 °F 79% 30.07 in 10.0 mi NNE 8.1 mph - 0.00 in   Scattered Clouds
8:53 AM 79.0 °F - 69.1 °F 72% 30.09 in 10.0 mi NE 12.7 mph 21.9 mph 0.01 in   Scattered Clouds
9:53 AM 82.0 °F 85.5 °F 69.1 °F 65% 30.10 in 10.0 mi NE 15.0 mph 27.6 mph N/A   Scattered Clouds
10:53 AM 82.0 °F 84.9 °F 68.0 °F 62% 30.11 in 10.0 mi NE 19.6 mph 28.8 mph N/A   Mostly Cloudy
11:53 AM 80.1 °F 83.6 °F 71.1 °F 74% 30.11 in 10.0 mi NE 8.1 mph - 0.00 in   Overcast
12:15 PM 82.4 °F 86.3 °F 69.8 °F 66% 30.09 in 10.0 mi ENE 13.8 mph 27.6 mph N/A   Mostly Cloudy
12:53 PM 81.0 °F 84.1 °F 69.1 °F 67% 30.09 in 10.0 mi ENE 19.6 mph 28.8 mph 0.02 in   Overcast
1:53 PM 82.9 °F 85.8 °F 68.0 °F 60% 30.07 in 10.0 mi ENE 18.4 mph 27.6 mph N/A   Mostly Cloudy
2:53 PM 84.0 °F 85.8 °F 64.9 °F 53% 30.05 in 10.0 mi ENE 19.6 mph 28.8 mph N/A   Scattered Clouds
3:53 PM 84.0 °F 85.4 °F 64.0 °F 51% 30.04 in 10.0 mi NE 18.4 mph 29.9 mph N/A   Scattered Clouds
4:53 PM 84.0 °F 85.8 °F 64.9 °F 53% 30.03 in 10.0 mi NE 15.0 mph 21.9 mph N/A   Scattered Clouds
5:53 PM 82.0 °F 83.4 °F 64.0 °F 54% 30.04 in 10.0 mi NE 17.3 mph 25.3 mph N/A   Scattered Clouds
6:53 PM 81.0 °F 82.7 °F 64.9 °F 58% 30.04 in 10.0 mi ENE 17.3 mph 26.5 mph N/A   Scattered Clouds
7:53 PM 80.6 °F 82.3 °F 64.4 °F 58% 30.04 in 10.0 mi NE 11.5 mph - N/A   Partly Cloudy
8:53 PM 81.0 °F 82.7 °F 64.9 °F 58% 30.07 in 10.0 mi ENE 17.3 mph 26.5 mph N/A   Mostly Cloudy
9:53 PM 80.6 °F 82.3 °F 64.4 °F 58% 30.07 in 10.0 mi ENE 13.8 mph 25.3 mph N/A   Scattered Clouds
10:53 PM 80.1 °F 81.9 °F 64.9 °F 60% 30.08 in 10.0 mi ENE 16.1 mph 24.2 mph N/A   Clear
11:53 PM 80.6 °F 82.3 °F 64.4 °F 58% 30.06 in 10.0 mi ENE 16.1 mph 26.5 mph N/A   Scattered Clouds